This demonstration page uses our WeatherBlox Daily Observations layout. Learn more.

Left ArrowRight Arrow

40.92945, -100.16068

Hourly Observations for October 15, 2021

Temp ( °F °C ) Dew Point ( °F °C ) Humidity (%) Winds ( mph kmh ) Pressure ( in mb ) Visibility ( mi km ) Precip ( " mm )
12:15 am 00:15 Clear 35 1.4 34 1 97 97 WNW 6 9 30.13 1020 10 16 N/A
12:35 am 00:35 Clear 34 1.3 34 1 98 98 WNW 6 9 30.14 1021 10 16 N/A
12:55 am 00:55 Clear 34 1.2 34 0.9 98 98 N N/A 30.14 1020 10 16 N/A
1:15 am 01:15 Clear 34 1 33 0.5 97 97 NW 5 7 30.15 1021 10 16 N/A
1:35 am 01:35 Clear 34 1.1 33 0.8 98 98 WNW 7 11 30.15 1021 10 16 N/A
1:55 am 01:55 Clear 34 1 33 0.6 97 97 W 7 11 30.15 1021 10 16 N/A
2:15 am 02:15 Clear 34 1 33 0.5 97 97 WNW 6 9 30.15 1021 10 16 N/A
2:35 am 02:35 Partly Cloudy 35 1.5 34 1 97 97 WNW 7 11 30.14 1021 10 16 N/A
2:55 am 02:55 Clear 35 1.7 34 1.2 97 97 WNW 8 13 30.15 1021 10 16 N/A
3:15 am 03:15 Clear 35 1.4 34 0.9 97 97 WNW 6 9 30.15 1021 10 16 N/A
3:35 am 03:35 Clear 34 1 33 0.5 97 97 NW 6 9 30.15 1021 10 16 N/A
3:55 am 03:55 Clear 34 0.9 33 0.4 97 97 WNW 3 6 30.16 1021 10 16 N/A
4:15 am 04:15 Clear 33 0.5 32 undefined 96 96 WNW 6 9 30.16 1021 10 16 N/A
4:35 am 04:35 Clear 33 0.5 32 undefined 96 96 WNW 6 9 30.16 1021 10 16 N/A
4:55 am 04:55 Clear 33 0.6 32 0.1 97 97 WNW 8 13 30.17 1022 10 16 N/A
5:15 am 05:15 Clear 33 0.3 32 undefined 98 98 WNW 6 9 30.17 1022 10 16 N/A
5:35 am 05:35 Clear 33 0.4 32 undefined 97 97 W 8 13 30.18 1022 10 16 N/A
5:55 am 05:55 Clear 32 0.2 32 undefined 99 99 WNW 7 11 30.20 1023 10 16 N/A
6:15 am 06:15 Clear 32 undefined 31 -0.5 96 96 WNW 6 9 30.21 1023 10 16 N/A
6:35 am 06:35 Clear 32 undefined 32 -0.2 99 99 WNW 5 7 30.21 1023 10 16 N/A
6:55 am 06:55 Partly Cloudy 32 undefined 31 -0.6 96 96 WNW 7 11 30.23 1024 10 16 N/A
7:15 am 07:15 Clear 32 undefined 31 -0.7 95 95 WNW 6 9 30.23 1024 10 16 N/A
7:35 am 07:35 Partly Cloudy 31 -0.3 30 -0.9 96 96 WNW 8 13 30.25 1024 10 16 N/A
7:55 am 07:55 Partly Cloudy 32 undefined 31 -0.7 95 95 WNW 7 11 30.25 1024 10 16 N/A
8:15 am 08:15 Sunny 32 undefined 31 -0.7 95 95 WNW 8 13 30.26 1025 10 16 N/A
8:35 am 08:35 Sunny 33 0.4 32 -0.1 96 96 WNW 7 11 30.27 1025 10 16 N/A
8:55 am 08:55 Sunny 34 1 32 undefined 93 93 WNW 8 13 30.28 1025 10 16 N/A
9:15 am 09:15 Sunny 36 2.3 33 0.8 90 90 WNW 9 15 30.27 1025 10 16 N/A
9:35 am 09:35 Sunny 38 3.4 34 1.3 86 86 WNW 12 19 30.27 1025 10 16 N/A
9:55 am 09:55 Sunny 40 4.7 36 2.1 83 83 WNW 9 15 30.26 1025 10 16 N/A
10:15 am 10:15 Sunny 42 5.8 36 2.4 79 79 WNW 12 19 30.26 1025 10 16 N/A
10:35 am 10:35 Sunny 44 6.8 37 2.7 75 75 NW 13 20 30.25 1024 10 16 N/A
10:55 am 10:55 Sunny 46 8 37 2.7 69 69 NW 16 26 30.25 1024 10 16 N/A
11:15 am 11:15 Sunny 48 9.1 37 3 66 66 NW 13 20 30.24 1024 10 16 N/A
11:35 am 11:35 Sunny 50 10 37 2.8 61 61 NW 14 22 30.23 1024 10 16 N/A
11:55 am 11:55 Sunny 51 10.8 35 1.7 54 54 WNW 14 22 30.21 1023 10 16 N/A
12:15 pm 12:15 Sunny 52 11.2 34 1.2 50 50 WNW 14 22 30.21 1023 10 16 N/A
12:35 pm 12:35 Sunny 53 11.5 34 1.2 49 49 NW 15 24 30.20 1023 10 16 N/A
12:55 pm 12:55 Sunny 55 12.5 34 1 46 46 NW 15 24 30.19 1022 10 16 N/A
1:15 pm 13:15 Sunny 56 13.2 31 -0.5 39 39 NW 16 26 30.17 1022 10 16 N/A
1:35 pm 13:35 Sunny 56 13.2 31 -0.6 39 39 NW 15 24 30.17 1022 10 16 N/A
1:55 pm 13:55 Partly Cloudy 56 13.6 29 -1.7 35 35 WNW 15 24 30.15 1021 10 16 N/A
2:15 pm 14:15 Mostly Cloudy 57 13.7 26 -3.2 31 31 NW 22 35 30.15 1021 10 16 N/A
2:35 pm 14:35 Cloudy 56 13.2 27 -3 33 33 WNW 17 28 30.15 1021 10 16 N/A
2:55 pm 14:55 Cloudy 55 12.9 24 -4.6 29 29 NW 20 31 30.15 1021 10 16 N/A
3:15 pm 15:15 Cloudy 55 12.9 25 -3.8 31 31 WNW 26 43 30.15 1021 10 16 N/A
3:35 pm 15:35 Cloudy 55 12.8 25 -4 31 31 WNW 23 37 30.16 1021 10 16 N/A
3:55 pm 15:55 Cloudy 55 12.7 26 -3.1 33 33 WNW 21 33 30.16 1021 10 16 N/A
4:15 pm 16:15 Cloudy 55 12.7 26 -3.4 33 33 WNW 22 35 30.17 1022 10 16 N/A
4:35 pm 16:35 Mostly Cloudy 56 13.1 26 -3.3 32 32 WNW 26 43 30.16 1021 10 16 N/A
4:55 pm 16:55 Partly Cloudy 56 13.2 25 -4.1 30 30 WNW 23 37 30.17 1022 10 16 N/A
5:15 pm 17:15 Partly Cloudy 55 12.9 25 -3.8 31 31 NW 23 37 30.17 1022 10 16 N/A
5:35 pm 17:35 Partly Cloudy 55 12.8 25 -3.7 32 32 NW 23 37 30.18 1022 10 16 N/A
5:55 pm 17:55 Partly Cloudy 54 12.3 26 -3.6 33 33 WNW 16 26 30.18 1022 10 16 N/A
6:15 pm 18:15 Sunny 53 11.7 26 -3.6 34 34 NW 20 31 30.19 1022 10 16 N/A
6:35 pm 18:35 Sunny 52 11 26 -3.4 37 37 NW 13 20 30.19 1022 10 16 N/A
6:55 pm 18:55 Sunny 48 9.1 27 -2.7 44 44 WNW 7 11 30.21 1023 10 16 N/A
7:15 pm 19:15 Clear 44 6.5 28 -2 55 55 WNW 8 13 30.23 1024 10 16 N/A
7:35 pm 19:35 Clear 42 5.7 29 -1.6 60 60 WNW 6 9 30.24 1024 10 16 N/A
7:55 pm 19:55 Clear 39 4 30 -1.3 69 69 W 7 11 30.27 1025 10 16 N/A
8:15 pm 20:15 Clear 37 3 29 -1.5 73 73 W 6 9 30.29 1026 10 16 N/A
8:35 pm 20:35 Clear 37 2.9 29 -1.6 73 73 W 7 11 30.29 1026 10 16 N/A
8:55 pm 20:55 Clear 36 2 29 -1.8 76 76 W 9 15 30.31 1026 10 16 N/A
9:15 pm 21:15 Clear 36 2.1 29 -1.6 77 77 W 6 9 30.31 1026 10 16 N/A
9:35 pm 21:35 Clear 35 1.8 28 -2.1 76 76 W 8 13 30.32 1027 10 16 N/A
9:55 pm 21:55 Clear 35 1.6 29 -1.9 78 78 W 8 13 30.32 1027 10 16 N/A
10:15 pm 22:15 Clear 34 1.2 29 -1.7 81 81 W 7 11 30.33 1027 10 16 N/A
10:35 pm 22:35 Clear 32 0.2 28 -2.4 83 83 W 8 13 30.34 1027 10 16 N/A
10:55 pm 22:55 Clear 32 undefined 28 -2.5 83 83 WNW 6 9 30.34 1027 10 16 N/A
11:15 pm 23:15 Clear 32 undefined 28 -2.5 83 83 WNW 8 13 30.35 1028 10 16 N/A
11:35 pm 23:35 Clear 32 undefined 28 -2.5 83 83 W 8 13 30.35 1028 10 16 N/A
11:55 pm 23:55 Clear 32 undefined 28 -2.5 83 83 W 10 17 30.35 1028 10 16 N/A

Powered by AerisWeather